Regional Weather Roundup
Issued by NWS

Home | Current Version | Previous Version | Graphics & Text | Print | Product List | Glossary On
Versions: 1 2 3 4 5 6 7 8 9 10 11 12 13 14 15 16 17 18 19 20 21 22 23 24 25 26 27 28 29 30 31 32 33 34 35 36 37 38 39 40 41 42 43 44 45 46 47 48 49 50
000
ASUS44 KMEG 311510
RWRTN
TENNESSEE HOURLY STATE WEATHER ROUNDUP
NATIONAL WEATHER SERVICE MEMPHIS TN
1000 AM CDT WED AUG 31 2016

TNZ002-004-019-021-049-052-054-088>092-311600-
WEST TENNESSEE

CITY           SKY/WX    TMP DP  RH WIND       PRES   REMARKS
MEMPHIS INTL   SUNNY     90  73  57 N5        30.01R HX  98
NWS MEMPHIS      N/A     87 N/A N/A MISG        N/A
JACKSON        SUNNY     85  76  74 CALM      30.01S HX  94
DYERSBURG      SUNNY     82  73  74 MISG      30.01S
UNION CITY     SUNNY     82  77  83 CALM      30.00F HX  91
PARIS          SUNNY     84  73  70 CALM      30.02S HX  91
HUNTINGDON     SUNNY     86  73  66 CALM      30.00F HX  93
LEXINGTON      SUNNY     88  72  58 CALM      30.00S HX  94
$$

TNZ008-025-027-028-033-062-065-066-311600-
NORTH MIDDLE TENNESSEE

CITY           SKY/WX    TMP DP  RH WIND       PRES   REMARKS
NASHVILLE      SUNNY     86  72  62 CALM      30.02R HX  92
PORTLAND       SUNNY     84  73  70 CALM      30.02S HX  91
CLARKSVILLE    SUNNY     86  71  60 CALM      30.01F HX  91
SMYRNA         SUNNY     84  73  70 MISG      30.03R HX  91
COOKEVILLE     SUNNY     86  73  66 SW3       30.03S HX  93
GALLATIN       SUNNY     86  73  66 CALM      30.04S HX  93
CROSSVILLE     SUNNY     81  67  62 SW7       30.08F
$$

TNZ061-075-076-078-094-096-097-311600-
SOUTH MIDDLE TENNESSEE

CITY           SKY/WX    TMP DP  RH WIND       PRES   REMARKS
FAYETTEVILLE   SUNNY     84  70  61 CALM      30.03S
TULLAHOMA      SUNNY     84  64  51 SW3       30.04F
WINCHESTER     SUNNY     86  66  51 CALM      30.03F
MCMINNVILLE    SUNNY     84  73  70 VRB3      30.04S HX  91
COLUMBIA       SUNNY     86  81  84 W3        30.00S HX 102
SHELBYVILLE    SUNNY     88  72  58 W6        30.03S HX  94
$$

TNZ017-018-042-046-047-311600-
NORTHEAST TENNESSEE

CITY           SKY/WX    TMP DP  RH WIND       PRES   REMARKS
TRI CITIES     SUNNY     81  68  64 CALM      30.07S
ELIZABETHTON   SUNNY     82  66  57 CALM      30.07S
$$

TNZ012-013-036-069-073-074-311600-
CENTRAL EAST TENNESSEE

CITY           SKY/WX    TMP DP  RH WIND       PRES   REMARKS
KNOXVILLE      MOSUNNY   84  66  54 SW3       30.03S
OAK RIDGE      SUNNY     84  68  58 CALM      30.04F
DOWNTOWN KNOXV SUNNY     82  72  69 CALM      30.03S
GATLINBURG     SUNNY     82  64  54 CALM      30.03F
MORRISTOWN     SUNNY     82  70  65 CALM      30.04F
JACKSBORO      SUNNY     82  70  65 CALM      30.07S
$$

TNZ083-085-099-311600-
SOUTHEAST TENNESSEE

CITY           SKY/WX    TMP DP  RH WIND       PRES   REMARKS
CHATTANOOGA    MOSUNNY   85  66  53 CALM      30.02S
$$

SKY/WX REPORTED AS FAIR MEANS FEW OR NO CLOUDS BELOW
12 THOUSAND FEET.




USA.gov is the U.S. government's official web portal to all federal, state and local government web resources and services.